Location: Zagreb
(45.8000°N, 16.0000°E)
Time: 20:02:39
(UTC+02:00)

Vanguard 2 Rocket - Visible Passes

Search period start: 09 August 2020 00:00
Search period end: 19 August 2020 00:00
Orbit: 556 x 3324 km, 32.9° (Epoch: 08 August)

Date Brightness Start Highest point End Pass type
(mag) Time Alt. Az. Time Alt. Az. Time Alt. Az.
09 Aug 10.0 01:01:25 10° WSW 01:10:06 25° SW 01:10:06 25° SW visible
09 Aug 9.1 21:47:27 10° WSW 21:56:49 42° S 22:07:03 21° SE visible
10 Aug 9.7 00:00:56 10° WSW 00:11:57 31° SSW 00:12:45 31° SSW visible
10 Aug 8.9 20:48:28 10° WSW 20:56:32 41° S 21:09:48 10° ESE visible
10 Aug 9.4 23:01:04 10° WSW 23:11:11 34° SSW 23:15:30 30° S visible
11 Aug 10.3 01:17:14 10° WSW 01:21:13 16° SW 01:21:13 16° SW visible
11 Aug 9.2 22:01:40 10° WSW 22:10:37 37° S 22:18:22 23° SSE visible
12 Aug 9.9 00:16:01 10° WSW 00:24:06 23° SW 00:24:06 23° SW visible
12 Aug 8.9 21:02:35 10° WSW 21:10:22 38° S 21:21:20 14° SE visible
12 Aug 9.7 23:15:46 10° WSW 23:24:55 27° SSW 23:27:03 26° S visible
13 Aug 9.4 22:16:07 10° WSW 22:24:27 30° SSW 22:30:06 23° SSE visible
14 Aug 10.2 00:32:26 10° WSW 00:35:50 14° SW 00:35:50 14° SW visible
14 Aug 9.1 21:16:53 10° WSW 21:24:15 32° S 21:33:14 15° SE visible
14 Aug 9.9 23:31:12 10° WSW 23:38:42 19° SSW 23:38:58 19° SSW visible
15 Aug 9.6 22:31:02 10° WSW 22:38:20 22° SSW 22:42:10 20° S visible
16 Aug 9.3 21:31:31 10° WSW 21:38:11 25° SSW 21:45:27 15° SSE visible
16 Aug 10.2 23:49:06 10° SW 23:51:12 11° SW 23:51:12 11° SW visible
17 Aug 9.1 20:32:24 10° WSW 20:38:17 26° S 20:47:09 10° SE visible
17 Aug 9.9 22:47:05 10° SW 22:52:14 15° SSW 22:54:33 14° SSW visible
18 Aug 9.6 21:46:49 10° WSW 21:52:09 17° SSW 21:57:57 12° S visible
